Flag for U.S.A. Weather past 2 weeks in San Luis Obispo, California, U.S.A.

Now
52 °F

Clear.


Feels Like: 52 °F
Forecast: 47 / 72 °F
Wind: No wind

Location: San Luis Obispo County-Mc Chesney Field

Current Time: Mar 30, 2015 at 10:31:36 PM

Latest Report: Mar 30, 2015 at 9:56 PM


Visibility: 8 mi

Pressure: 30.04 "Hg

Humidity: 93%

Dew point: 50 °F

Location of San Luis ObispoLocation

Historic Weather in San Luis Obispo — Graph

°F

San Luis Obispo temperature yesterday

Maximum temperature yesterday: 78 °F (at 10:56 AM)
Minimum temperature yesterday: 51 °F (at 11:56 PM)
Average temperature yesterday: 63 °F

Past Weeks' High & Low Weather Summary

 TemperatureHumidityPressure
High88 °F (Mar 26, 11:56 AM)100% (Mar 28, 1:04 AM)30.25 "Hg (Mar 28, 1:04 AM)
Low45 °F (Mar 20, 5:56 AM)18% (Mar 26, 11:56 AM)29.90 "Hg (Mar 16, 4:56 PM)
Average60 °F68%30.07 "Hg
* Reported Mar 15 8:56 PM — Mar 30 8:56 PM, San Luis Obispo, Weather by CustomWeather, © 2015

Note: Actual official high and low records may vary slightly from our data, if they occured in-between our weather recording intervals... More about our weather records

Advertising

San Luis Obispo weather history for previous 24 hours

 ConditionsComfort  
Time TempWeatherWind HumidityBarometerVisibility
8:56 PM
Mon, Mar 30
53 °FClear.No wind86%30.02 "Hg8 mi
7:56 PM54 °FSunny.7 mph86%30.01 "Hg9 mi
6:56 PM57 °FSunny.18 mph78%29.98 "Hg9 mi
5:56 PM63 °FSunny.17 mph65%29.97 "Hg10 mi
4:56 PM67 °FSunny.18 mph55%29.97 "Hg10 mi
3:56 PM73 °FSunny.16 mph41%29.98 "Hg10 mi
2:56 PM78 °FSunny.12 mph33%29.98 "Hg10 mi
1:56 PM77 °FSunny.9 mph42%30.00 "Hg10 mi
12:56 PM74 °FSunny.3 mph46%30.02 "Hg10 mi
11:56 AM71 °FSunny.7 mph49%30.03 "Hg10 mi
10:56 AM68 °FSunny.No wind55%30.04 "Hg10 mi
9:56 AM61 °FSunny.No wind67%30.04 "Hg10 mi
8:56 AM54 °FSunny.No wind83%30.03 "Hg7 mi
7:56 AM46 °FScattered clouds.No wind93%30.03 "Hg7 mi
6:56 AM45 °FPassing clouds.No wind90%30.02 "Hg7 mi
5:56 AM45 °FClear.No wind90%30.00 "Hg9 mi
4:56 AM45 °FClear.3 mph86%29.99 "Hg9 mi
3:56 AM47 °FClear.No wind86%30.00 "Hg9 mi
2:56 AM48 °FClear.3 mph86%30.00 "Hg9 mi
1:56 AM48 °FClear.3 mph86%30.01 "Hg10 mi
12:56 AM50 °FClear.No wind80%30.01 "Hg10 mi
11:56 PM
Sun, Mar 29
51 °FClear.No wind83%30.02 "Hg10 mi
10:56 PM52 °FClear.No wind80%30.01 "Hg10 mi
Weather by CustomWeather, © 2015

See weather overviewHow to use our weather pages